Location: Kervinic
(48.4279°N, 4.7373°W)
Time: 17:38:56
(UTC+00:00)

Cosmos 921 Rocket - Pass Details

Date: 09 April 2020
Orbit: 572 x 632 km, 75.8° (Epoch: 28 May)

Event Time Altitude Azimuth Distance (km) Brightness Sun altitude
Rises 20:36:34 0° 335° (NNW) 2,791 7.4 -15.3°
Reaches altitude 10° 20:38:49 10° 329° (NNW) 1,888 6.5 -15.6°
Maximum altitude 20:42:50 47° 256° (WSW) 772 3.8 -16.2°
Enters shadow 20:46:33 12° 184° (S) 1,768 5.1 -16.7°
